GFSCGP_925_temp_171.txt.gz
Temp
38 38 38 40 40 39 41 39 40 40 40 39 39 38 37 36 37 36 35 34 33 33 32 30 30 29 28 27 26 26 25 25 24 24 25 26 27 27 27 27 27 26 26 26
38 38 40 42 41 40 40 40 40 40 40 39 39 39 39 37 37 37 36 35 35 35 34 31 30 29 29 28 27 26 25 24 24 24 25 26 27 28 28 27 27 26 25 25
38 39 41 41 40 39 40 40 40 39 40 40 40 39 39 39 39 39 38 37 36 36 34 33 30 29 29 28 27 26 25 25 24 24 25 25 25 25 26 27 27 27 26 25
39 41 40 40 39 40 40 41 40 40 39 39 40 36 39 39 39 39 39 38 37 36 36 34 32 30 30 29 28 27 25 24 24 24 25 26 27 27 28 29 29 28 26 26
38 39 40 39 39 41 40 42 40 40 39 40 40 39 40 40 39 39 39 39 39 37 37 36 33 31 31 30 29 28 26 25 25 24 24 26 25 27 27 28 28 27 26 25
40 41 41 40 41 41 41 40 40 40 40 39 40 40 40 40 40 40 40 40 39 39 38 37 35 33 32 31 30 29 26 25 24 25 24 24 26 26 27 28 28 28 28 28
38 40 41 40 40 41 40 39 37 37 38 39 41 40 40 42 42 42 41 41 41 40 39 38 36 34 33 32 31 30 28 25 25 25 25 24 24 25 25 25 27 27 28 29
37 36 39 40 40 40 39 39 38 36 38 39 40 39 41 43 43 43 43 42 42 41 40 39 38 36 34 33 32 31 29 27 26 26 25 25 24 25 25 25 26 27 28 29
37 37 40 40 40 40 39 38 41 40 41 40 40 41 42 43 42 42 43 43 42 42 41 40 39 37 35 34 33 32 31 28 27 27 26 25 24 24 27 26 26 26 26 26
39 37 40 40 40 40 40 41 39 40 38 38 40 40 40 41 42 43 42 42 42 42 42 41 40 38 36 35 34 32 31 30 28 28 27 26 26 25 25 24 25 25 25 24
40 39 39 40 38 39 39 40 40 41 40 39 39 40 43 42 42 42 42 42 42 42 42 42 41 39 37 36 35 34 32 31 29 28 28 27 27 26 26 26 26 25 24 23
39 39 38 39 40 41 41 40 40 39 38 40 41 41 44 43 43 42 42 42 42 42 43 42 41 40 38 36 36 35 33 32 30 29 28 27 27 27 27 26 24 23 22 22
39 38 37 38 40 40 40 40 41 41 41 39 39 40 43 43 42 42 42 41 41 41 41 41 40 39 38 36 35 34 33 32 30 28 27 27 27 26 25 24 23 22 22 22
37 38 37 38 38 39 38 40 40 41 40 40 40 41 42 42 42 42 42 41 41 40 40 39 38 37 35 34 33 33 32 30 29 27 27 27 26 24 23 22 22 22 22 22
38 36 38 39 41 40 39 39 40 40 40 40 41 41 42 42 42 42 42 41 40 38 38 37 36 34 33 32 31 30 29 28 27 27 26 23 23 22 22 22 21 21 21 21
38 35 36 37 40 41 39 40 40 40 41 41 41 41 43 43 43 42 41 40 39 38 37 36 34 33 31 30 29 29 28 27 26 24 23 22 22 22 21 21 21 20 20 20
36 36 35 35 38 39 38 40 40 40 41 41 40 41 43 42 41 42 42 41 39 38 37 35 33 32 30 29 29 27 26 25 24 23 23 22 21 21 21 21 20 20 20 19
35 35 35 35 37 35 38 41 41 40 41 42 41 42 42 42 42 42 42 42 41 39 37 34 33 31 29 29 27 26 25 24 23 23 22 21 21 21 20 20 19 19 19 19
37 35 34 34 36 37 38 39 39 39 39 41 40 41 42 42 42 41 41 42 42 39 36 33 31 30 29 27 26 25 24 23 23 22 22 21 21 20 20 19 19 19 19 19
36 35 35 34 34 34 37 40 41 41 37 40 40 40 41 41 39 40 41 41 40 37 34 32 30 28 27 25 24 24 23 23 22 21 21 20 20 20 19 19 18 18 19 18
33 33 33 34 34 37 40 40 41 36 37 40 40 40 40 40 40 41 40 39 37 34 31 30 28 27 25 24 24 23 23 22 21 20 20 19 18 18 18 18 17 17 18 17
32 31 33 35 34 34 40 40 37 38 39 40 40 40 40 40 41 39 37 35 34 31 30 28 27 25 24 23 23 22 21 20 20 19 19 18 19 19 18 17 17 17 16 18
31 33 34 34 35 37 39 39 40 40 39 39 40 41 41 40 40 37 34 33 31 30 28 27 26 24 23 23 22 21 19 19 19 18 17 17 17 17 17 17 17 19 18 19
34 35 34 34 35 37 38 39 39 39 40 40 40 41 41 40 40 36 33 32 30 28 28 27 25 24 23 22 21 19 19 18 18 18 17 17 17 17 18 19 19 17 17 17
35 34 33 34 35 36 37 38 38 38 37 37 38 39 39 39 37 34 32 30 29 27 27 25 24 23 22 21 19 19 18 18 19 18 18 18 18 17 15 15 16 14 12 12
35 34 33 34 35 35 36 37 38 38 38 39 36 37 38 39 36 33 31 29 28 26 25 24 23 22 21 19 19 18 19 19 19 19 20 21 19 19 18 15 12 12 12 12

GFSCGP_925_temp_174.txt.gz
Temp
38 37 37 39 38 32 34 36 35 38 41 39 34 36 36 36 37 35 34 32 32 32 31 29 28 28 28 27 27 26 26 26 25 25 25 25 26 27 27 28 28 27 26 26
38 37 39 41 41 36 35 35 39 40 41 40 39 37 37 37 37 37 36 34 33 33 32 31 29 28 27 27 27 26 26 25 25 24 25 26 27 27 27 27 27 27 26 26
37 39 40 41 40 39 40 41 40 39 40 41 40 38 37 38 38 38 38 36 36 35 33 32 31 30 29 28 27 26 25 25 24 24 25 25 26 26 26 26 27 27 27 26
38 40 40 40 40 40 40 41 41 40 40 38 41 37 38 38 38 38 38 37 37 36 34 32 31 30 30 29 28 27 25 25 24 24 24 25 26 26 26 27 28 28 27 27
38 39 40 40 41 41 40 42 41 41 40 40 40 38 39 39 38 38 39 38 37 37 36 34 32 31 30 30 29 27 26 25 25 24 24 25 25 26 27 27 28 28 28 27
39 41 41 41 41 41 42 41 41 40 40 38 40 39 38 39 39 39 39 39 39 38 37 35 33 32 31 31 30 28 26 25 24 25 24 24 25 26 26 27 27 28 28 28
38 39 41 42 41 41 41 40 37 37 37 38 41 39 39 41 41 41 40 40 40 39 38 36 34 33 31 31 31 29 27 25 25 24 24 24 24 25 26 26 26 27 27 28
36 36 40 41 40 40 40 40 38 35 37 39 41 39 40 43 43 42 42 41 40 40 39 38 36 34 32 32 31 30 27 25 25 24 24 24 24 24 24 25 25 26 26 27
37 37 40 41 41 41 40 39 41 39 41 40 40 41 42 43 42 42 42 42 41 40 40 38 38 35 33 33 32 31 28 26 25 25 25 24 24 24 25 26 26 26 26 26
39 37 40 41 41 41 40 41 38 39 36 36 40 40 40 41 42 42 42 42 41 40 41 39 39 36 35 34 33 32 30 27 26 26 26 25 25 24 25 25 25 25 25 24
39 39 39 40 39 39 39 40 40 40 40 38 37 38 42 41 42 42 42 43 42 41 41 40 40 38 36 35 34 33 32 28 27 27 27 26 26 25 25 25 25 24 24 22
39 39 38 39 41 41 40 39 40 39 37 40 39 40 44 43 43 43 43 43 43 42 42 41 40 39 37 36 35 33 32 31 28 28 28 27 27 26 26 26 24 24 23 22
39 38 37 38 40 40 39 40 40 40 40 38 38 39 43 43 43 43 43 43 42 42 42 41 39 38 37 36 36 34 33 31 29 29 28 28 27 27 25 24 23 23 23 22
37 38 37 38 39 40 38 39 40 40 39 39 40 40 42 42 42 42 42 41 41 40 40 40 38 35 36 36 35 34 33 31 30 28 27 27 26 24 23 23 23 22 22 22
39 36 38 39 41 41 40 39 40 40 40 39 41 41 40 41 42 42 42 40 40 39 40 37 36 34 34 33 33 33 32 30 28 28 26 24 23 24 23 22 22 22 21 21
40 36 37 38 39 40 40 40 40 40 40 40 41 41 43 41 42 42 41 40 39 39 39 36 35 33 32 32 31 30 29 28 27 24 23 23 23 22 22 21 21 21 20 20
37 37 36 36 38 39 38 40 40 40 41 41 40 41 43 42 42 41 40 40 39 38 38 35 34 32 31 30 30 29 27 26 23 22 22 22 22 21 21 21 21 20 20 19
36 35 36 36 36 34 39 42 42 41 41 41 42 42 42 42 43 43 42 40 39 38 37 35 33 32 30 29 29 27 26 23 23 22 22 22 21 21 21 20 20 20 19 19
38 36 35 34 35 36 38 40 40 40 40 42 41 42 42 43 43 41 42 42 41 38 36 34 33 31 29 29 27 25 24 24 23 22 22 21 21 20 20 20 19 19 19 19
37 35 35 34 34 34 37 40 42 41 38 42 42 41 42 42 40 41 41 41 40 37 34 33 31 30 29 27 25 25 24 24 23 22 21 21 21 20 19 19 18 19 19 18
35 35 34 35 34 36 39 41 42 37 38 41 41 41 41 40 40 41 41 40 38 34 33 32 31 29 27 25 25 24 23 23 22 21 21 20 19 19 18 18 18 18 18 17
33 33 34 34 34 33 40 40 38 40 39 41 40 40 39 39 40 40 39 34 33 32 31 30 29 27 25 24 24 23 23 22 21 20 19 19 18 18 17 17 17 17 17 18
32 34 34 35 35 38 39 38 40 41 39 40 40 40 40 40 39 39 35 33 32 31 30 29 27 25 24 24 23 23 21 20 20 19 18 18 18 17 17 17 17 17 18 19
34 35 34 33 36 37 38 39 39 40 40 40 40 40 40 40 40 36 33 32 31 30 29 28 25 24 23 23 22 20 20 19 19 18 18 17 17 17 17 18 18 18 17 17
35 34 33 33 34 36 37 38 39 40 39 39 39 39 39 38 39 34 32 31 30 29 28 26 24 23 22 22 20 19 19 18 18 18 17 18 18 17 16 16 15 14 14 14
36 34 33 33 34 34 35 37 39 38 39 39 39 38 38 38 35 33 31 30 29 28 28 25 23 22 21 20 19 19 18 18 18 19 19 19 17 16 14 14 13 13 13 13

GFSCGP_925_temp_180.txt.gz
Temp
31 29 28 30 30 30 32 30 29 29 32 31 29 27 26 26 26 26 25 25 25 25 25 25 24 24 24 24 24 25 24 25 25 24 24 24 24 25 25 26 26 26 26 26
30 28 31 32 32 33 32 31 29 29 31 29 28 27 28 27 26 26 26 25 25 26 25 25 25 24 24 25 25 25 25 25 25 25 25 25 25 25 25 25 26 26 26 26
28 30 33 33 32 32 32 30 30 30 32 31 29 28 28 28 28 28 27 26 26 26 25 25 24 24 24 25 25 25 25 25 25 25 25 24 24 24 24 25 26 27 27 26
29 32 33 33 32 32 30 33 33 32 30 28 31 26 27 29 28 28 27 27 26 26 26 25 25 24 25 25 26 26 26 25 25 25 24 24 24 24 25 25 26 26 27 27
29 31 32 33 34 34 34 34 33 33 31 32 31 28 28 28 28 29 28 28 28 27 27 25 25 25 25 25 25 26 26 26 26 25 25 25 24 24 25 25 25 26 26 26
31 33 33 34 35 35 35 35 34 32 29 28 31 29 27 30 30 30 29 29 29 28 27 26 26 26 25 26 25 26 26 26 26 25 25 25 25 24 24 24 25 25 26 25
31 31 34 34 33 34 35 34 30 29 28 29 28 30 28 32 33 32 30 30 30 29 27 27 26 26 25 26 25 25 26 25 25 25 25 25 24 24 24 24 25 25 25 26
28 29 32 34 33 32 32 35 28 30 29 30 30 31 33 34 34 33 32 31 31 29 29 27 27 26 26 26 26 25 24 24 25 25 25 25 24 24 24 24 24 24 25 25
26 28 33 34 35 33 34 32 31 29 29 30 30 33 34 34 34 34 32 32 31 30 29 28 28 28 27 26 26 25 25 25 25 25 25 25 24 24 24 24 24 24 25 25
29 29 31 34 34 33 32 33 33 26 31 32 30 33 32 31 33 33 32 32 31 30 29 29 28 28 28 28 27 26 26 26 26 26 25 25 24 24 24 24 24 24 24 24
28 27 30 32 32 33 32 32 29 27 27 28 29 30 29 33 34 33 33 33 32 31 30 29 29 29 28 28 27 27 26 26 25 26 26 25 25 24 24 24 24 24 24 23
29 25 27 29 33 34 31 31 29 27 30 27 27 29 34 34 33 34 34 34 32 32 32 30 29 29 28 28 27 27 26 26 27 27 26 26 25 24 24 24 24 23 23 22
30 27 26 29 30 32 32 31 29 26 25 28 29 30 33 32 33 35 34 34 33 33 32 31 30 29 28 28 28 27 26 26 27 27 26 25 25 25 25 24 24 23 22 21
31 25 30 28 31 31 33 33 32 29 27 27 28 31 33 35 32 31 34 34 33 33 32 31 30 29 28 28 28 28 26 26 26 25 25 25 25 25 25 24 23 22 22 21
31 30 27 31 32 32 33 33 32 30 30 30 32 31 32 33 31 32 32 34 33 33 32 32 31 29 29 28 28 28 27 26 26 25 24 25 26 25 25 23 22 21 21 21
27 28 28 30 30 31 33 33 34 33 30 31 30 32 31 33 32 31 31 32 32 32 32 32 32 29 29 29 28 28 27 26 26 25 24 25 25 24 23 22 21 21 21 19
27 32 27 30 31 32 30 31 33 34 34 33 32 31 34 36 34 33 31 31 32 32 32 31 30 28 28 29 28 27 26 26 25 24 24 24 24 23 22 21 21 21 20 18
24 31 28 30 27 28 31 31 33 35 35 31 33 32 32 33 35 32 31 30 29 29 29 29 29 28 28 28 27 26 25 24 23 22 23 23 23 22 21 21 21 20 19 19
26 27 24 28 28 30 31 33 33 31 33 32 32 32 33 33 33 34 32 30 30 29 28 27 28 27 26 25 25 24 22 22 21 21 21 22 22 21 20 20 20 19 18 18
24 31 28 25 29 28 29 32 34 31 30 33 31 30 32 31 30 29 29 29 30 28 27 26 26 25 24 23 23 22 21 21 20 21 21 21 21 21 20 20 19 19 19 18
24 28 29 25 30 27 29 32 33 30 29 32 30 29 30 31 30 32 28 28 27 26 25 26 25 25 22 22 22 21 21 20 21 21 20 21 21 21 20 19 19 18 18 17
25 24 23 23 26 30 31 31 33 30 29 34 33 31 28 30 28 27 27 25 25 24 24 26 24 22 22 22 23 21 20 20 20 20 20 20 20 20 19 19 18 18 18 17
28 25 25 26 25 26 31 31 31 27 30 32 33 31 28 28 29 27 25 25 25 24 25 24 22 21 21 22 23 20 19 20 20 20 20 20 19 19 19 18 18 17 17 16
22 25 25 28 30 29 29 31 32 32 32 30 30 30 29 29 26 25 24 24 24 24 23 23 22 21 21 21 20 21 19 20 20 19 19 19 18 18 18 17 17 17 16 16
21 22 23 25 29 27 28 30 32 32 31 30 31 30 28 27 25 25 24 24 24 23 23 23 22 21 20 19 19 19 20 20 18 18 18 18 18 17 16 16 16 17 16 15
20 20 20 23 25 26 29 32 32 31 33 32 31 31 30 26 25 25 25 24 23 22 22 21 21 19 18 18 17 18 19 20 18 16 16 17 16 16 16 16 14 15 15 15

GFSCGP_925_temp_183.txt.gz
Temp
30 28 27 29 28 30 30 29 29 29 31 29 26 24 24 24 24 24 24 24 24 24 24 24 23 23 23 23 24 24 24 24 23 23 24 24 25 25 25 26 26 25 26 26
28 27 29 30 30 31 31 31 28 29 30 29 26 25 25 24 24 24 24 24 24 24 24 23 23 23 23 23 24 24 24 24 24 24 25 25 25 25 25 25 25 25 25 26
26 29 30 31 31 30 30 29 29 31 30 29 27 26 25 25 25 25 25 25 25 24 23 23 23 23 23 23 24 24 24 25 24 25 24 24 24 24 24 25 25 25 25 26
28 29 31 30 31 31 27 30 31 30 28 28 29 26 24 26 25 25 25 25 25 25 25 23 23 23 23 23 24 24 24 25 25 25 24 24 24 24 25 25 25 25 25 26
27 29 29 30 32 31 31 31 31 30 27 28 28 27 26 26 25 26 26 26 26 25 25 24 24 23 23 24 24 25 25 25 25 25 25 24 24 25 25 25 25 25 25 25
28 31 30 31 33 33 34 34 32 26 25 25 28 28 26 25 28 27 27 27 27 26 25 25 25 24 24 24 24 25 25 25 25 25 25 24 24 25 24 24 24 25 25 25
29 30 31 33 32 32 33 28 26 27 25 26 26 27 31 29 30 29 28 28 27 27 26 25 24 24 24 24 24 24 25 24 25 25 25 24 24 25 24 25 24 24 24 25
26 28 30 31 30 29 29 27 26 27 26 28 27 27 31 33 31 31 30 29 28 27 27 26 25 24 24 24 24 24 24 24 25 25 25 25 25 25 24 24 24 24 24 24
24 26 30 32 32 31 30 28 31 29 25 27 27 29 32 30 31 30 30 29 28 28 27 26 25 25 25 25 24 24 24 24 24 25 25 25 25 25 24 24 24 24 23 23
27 28 29 33 32 31 30 30 29 24 28 29 28 29 30 30 29 30 29 29 29 28 27 27 26 26 25 25 25 24 24 25 25 25 25 24 25 25 24 24 23 23 23 23
26 26 29 30 30 31 29 29 27 26 25 27 28 29 28 28 30 30 30 30 29 28 28 27 27 26 26 25 25 25 25 25 25 25 25 24 24 25 24 24 23 23 22 22
26 23 26 28 31 31 31 29 28 27 28 24 26 29 32 29 31 31 31 31 30 30 29 28 27 27 26 26 25 25 25 25 25 25 24 24 25 24 24 24 23 23 23 22
25 24 24 29 28 30 30 28 26 24 24 25 28 28 30 30 30 31 32 31 30 30 29 28 27 26 26 26 26 25 25 25 25 24 24 23 24 24 24 24 23 23 22 21
24 22 28 26 30 28 30 30 27 28 25 26 27 31 31 30 30 30 32 32 31 30 30 28 27 26 26 26 26 25 25 25 24 24 23 24 25 25 25 24 23 22 21 21
24 25 25 29 28 31 31 31 28 29 28 30 31 29 30 31 29 28 31 32 31 30 30 30 28 27 26 26 26 26 26 25 25 24 23 25 26 25 24 23 22 21 21 20
20 25 26 26 30 31 29 30 30 30 27 31 30 30 29 31 30 28 30 31 31 30 30 30 30 28 26 26 26 26 26 25 25 24 23 24 25 24 23 22 21 21 20 20
19 22 25 28 28 28 28 31 30 31 29 31 29 30 32 33 33 29 28 30 31 32 30 30 30 28 28 27 27 26 25 26 25 23 23 24 24 23 22 21 21 20 19 18
20 20 22 27 25 26 30 29 31 31 31 30 31 31 29 31 33 31 27 31 31 32 31 31 30 30 29 28 27 27 26 25 24 22 23 23 23 22 22 21 20 19 19 18
20 19 21 25 27 28 30 28 31 30 31 30 30 31 30 31 32 33 29 29 31 31 31 30 31 30 27 28 28 26 24 24 22 21 22 22 22 21 21 20 20 19 18 17
22 22 21 22 26 27 27 31 30 29 31 30 29 29 30 29 30 29 27 28 28 29 30 27 29 28 26 26 25 23 22 21 21 21 22 22 21 21 21 21 20 19 18 17
18 19 22 24 28 25 27 30 30 29 28 29 29 29 27 29 29 33 27 27 25 23 23 26 25 24 24 23 23 21 20 21 20 21 21 20 21 21 21 20 19 18 17 16
21 21 21 23 25 28 27 30 31 31 29 30 30 28 26 28 29 29 26 25 24 23 22 24 23 21 21 22 23 20 20 20 20 20 20 20 21 21 20 20 18 18 17 16
23 22 22 26 29 25 25 30 28 28 31 31 34 32 25 26 27 26 24 23 23 23 23 23 22 21 20 21 22 20 18 20 19 19 19 20 20 20 19 19 18 17 17 16
19 20 20 24 26 27 28 29 27 26 29 30 31 32 26 27 25 23 22 22 22 23 22 22 21 20 20 21 21 20 19 19 19 18 18 19 20 19 18 18 18 17 16 15
18 19 18 20 23 25 27 28 27 29 29 30 28 29 28 26 24 23 22 23 23 22 22 22 22 21 20 20 20 19 19 20 18 17 17 17 18 18 17 16 16 17 16 17
18 18 17 18 20 19 22 25 28 30 30 29 27 28 27 25 24 22 22 22 22 21 21 21 20 20 18 19 18 19 19 20 18 16 16 16 16 16 16 16 14 15 16 16

GFSCGP_925_temp_186.txt.gz
Temp
28 27 27 28 27 29 28 28 29 29 28 27 24 25 23 23 22 22 22 22 22 23 23 22 22 23 23 23 23 23 23 23 23 23 23 23 24 25 25 25 25 25 25 25
26 26 28 29 28 30 29 29 29 29 29 28 25 25 24 23 23 23 23 22 23 22 22 22 22 22 22 23 23 23 23 24 24 23 23 24 24 25 25 25 25 25 25 25
26 28 29 30 29 29 28 28 28 30 29 27 26 25 23 24 23 24 24 24 23 23 22 22 22 22 22 22 23 23 24 24 24 24 23 23 24 24 25 25 26 25 25 25
28 29 29 29 29 29 29 29 30 29 27 27 28 26 23 23 23 23 23 24 24 23 23 22 22 22 22 23 23 23 24 24 24 24 23 23 24 24 25 25 25 25 25 25
27 27 28 29 30 30 30 29 29 29 28 27 27 26 26 24 23 23 24 24 24 24 24 23 23 22 23 23 24 24 24 25 24 24 24 24 24 24 24 24 25 25 25 24
27 28 28 29 31 31 30 30 27 24 24 25 26 27 27 23 26 25 25 25 25 25 24 23 23 23 23 24 24 24 24 24 24 24 24 24 24 24 24 24 24 25 24 24
27 28 30 31 31 31 29 27 25 26 25 26 25 26 30 27 26 27 26 26 26 25 24 24 22 23 22 22 23 24 24 24 25 24 24 24 24 24 24 24 24 24 24 24
24 26 28 30 30 28 28 27 25 27 25 27 24 26 29 30 28 28 28 27 26 26 25 24 24 23 23 22 23 23 24 24 24 24 24 25 24 24 24 24 24 24 24 23
22 26 28 29 30 32 28 27 27 24 25 26 26 27 29 30 27 27 26 26 26 26 25 24 24 24 23 23 23 23 23 24 24 25 25 24 24 24 24 24 24 24 23 23
24 26 28 30 32 31 29 28 28 23 28 28 26 28 28 31 27 28 26 26 26 26 26 25 24 24 24 24 24 24 24 24 25 25 25 25 25 25 24 24 24 24 23 22
23 24 27 27 28 27 28 27 23 24 24 25 26 27 27 30 27 28 28 27 26 26 26 25 25 25 24 24 24 24 24 24 25 25 25 25 25 25 25 24 24 24 23 22
24 21 25 27 29 29 30 27 26 25 26 23 24 27 30 28 28 27 28 27 26 26 26 26 25 25 24 24 24 24 24 24 25 25 25 25 24 24 25 24 24 23 22 21
23 22 23 28 27 27 30 27 25 23 23 24 26 28 29 27 27 28 28 27 27 26 25 24 23 23 24 24 24 24 24 24 24 24 24 24 24 24 25 24 24 22 22 21
21 20 25 25 27 26 28 27 27 27 24 25 25 29 31 30 29 27 28 27 26 26 26 25 24 23 24 24 24 24 24 24 24 23 23 24 25 26 25 24 23 22 22 21
19 21 23 26 28 29 29 28 26 29 27 30 31 27 29 28 28 28 28 27 26 26 26 26 25 24 24 24 24 25 25 24 24 24 23 24 26 25 24 23 22 21 21 20
15 21 23 26 28 28 28 29 28 29 27 29 29 27 28 29 29 29 28 27 27 27 28 27 27 25 24 24 24 24 24 24 24 24 23 24 24 24 23 23 22 21 20 19
15 17 18 26 25 26 26 29 27 28 27 29 29 31 30 30 28 28 27 26 28 28 28 28 27 26 26 25 26 25 24 24 24 24 24 24 24 23 23 22 21 21 19 18
16 16 17 20 23 25 29 29 31 28 29 27 30 30 28 30 29 29 27 27 27 28 28 28 29 28 27 27 27 26 25 25 24 23 23 23 23 23 22 21 20 19 18 17
17 16 17 21 22 26 28 27 29 27 30 27 28 29 30 30 31 30 28 26 28 28 28 28 29 30 28 28 27 26 24 24 23 22 22 22 23 21 20 20 19 19 18 17
17 18 18 18 23 25 26 28 28 29 30 27 28 28 29 28 29 29 29 26 25 26 27 26 29 29 29 27 26 24 22 22 22 22 21 22 22 21 19 19 19 19 18 17
15 15 19 19 19 22 25 29 28 28 28 28 27 27 26 28 29 30 28 27 25 25 25 28 28 26 26 25 25 23 22 22 22 21 21 21 21 20 20 19 18 18 17 16
17 17 16 18 19 22 26 27 29 30 28 27 26 26 25 26 27 27 27 26 23 23 22 25 23 23 24 24 24 21 21 21 22 21 20 20 19 19 19 19 17 17 16 15
19 19 19 19 20 22 24 29 27 28 27 27 27 27 25 25 25 26 25 24 23 22 22 23 23 21 21 23 23 21 19 19 20 20 19 18 18 18 19 19 17 15 15 14
18 17 16 18 22 20 22 27 26 25 28 27 28 28 24 26 24 25 24 22 22 21 22 22 21 20 20 21 22 21 19 19 19 18 17 17 18 18 17 17 16 16 14 12
19 18 16 16 18 19 24 21 21 22 25 28 28 28 27 25 25 23 22 21 21 21 21 21 21 20 20 19 19 19 19 19 18 17 17 16 17 17 16 16 16 16 16 17
18 17 16 16 17 17 17 19 21 21 23 26 27 28 28 26 26 22 21 21 21 21 21 21 20 20 19 18 18 18 19 19 18 16 16 16 16 16 17 16 15 16 16 16